Location: Red Deer
(52.2681°N, 113.8112°W)
Time: 02:12:12
(UTC-07:00)

BlueWalker 3 - Pass Details

Date: 04 December 2022
Orbit: 499 x 517 km, 53.2° (Epoch: 29 January)

Event Time Altitude Azimuth Distance (km) Brightness Sun altitude
Rises 19:28:41 0° 287° (WNW) 2,628 6.7 -27.0°
Reaches altitude 10° 19:30:55 10° 283° (WNW) 1,735 5.6 -27.4°
Enters shadow 19:33:23 35° 268° (W) 835 3.5 -27.7°
